Flag for India Weather past 2 weeks in Robertsganj, Uttar Pradesh, India

Now
88 °F

Haze.


Feels Like: 87 °F
Forecast: 76 / 105 °F
Wind: No wind

Location: Varanasi / Babatpur

Current Time: May 6, 2015 at 12:58:53 AM

Latest Report: May 5, 2015 at 11:00 PM


Visibility: 2 mi

Pressure: 29.65 "Hg

Humidity: 35%

Dew point: 57 °F

Location of RobertsganjLocation

Historic Weather in Robertsganj — Graph

°F

Robertsganj temperature yesterday

Maximum temperature yesterday: 108 °F (at 2:00 PM)
Minimum temperature yesterday: 73 °F (at 6:00 AM)
Average temperature yesterday: 93 °F

Past Weeks' High & Low Weather Summary

 TemperatureHumidityPressure
High108 °F (May 5, 2:00 PM)94% (Apr 29, 12:00 AM)29.89 "Hg (Apr 29, 12:00 AM)
Low70 °F (Apr 28, 12:00 PM)10% (May 4, 2:00 PM)29.59 "Hg (Apr 21, 6:00 PM)
Average89 °F48%29.72 "Hg
* Reported Apr 20 11:00 PM — May 5 11:00 PM, Robertsganj, Weather by CustomWeather, © 2015

Note: Actual official high and low records may vary slightly from our data, if they occured in-between our weather recording intervals... More about our weather records

Advertising

Robertsganj weather history for previous 24 hours

 ConditionsComfort  
Time TempWeatherWind HumidityBarometerVisibility
11:00 PM
Tue, May 5
88 °FHaze.No wind35%29.65 "Hg2 mi
10:00 PM90 °FHaze.No wind31%29.65 "Hg2 mi
9:00 PM95 °FHaze.No wind30%29.65 "Hg2 mi
8:00 PM97 °FHaze.No wind27%29.62 "Hg2 mi
7:00 PM99 °FHaze.No wind25%29.62 "Hg2 mi
6:00 PM100 °FHaze.1 mph22%29.62 "Hg3 mi
5:00 PM106 °FHaze.6 mph13%29.62 "Hg3 mi
4:00 PM108 °FHaze.6 mph12%29.62 "Hg3 mi
3:00 PM108 °FHaze.9 mph12%29.62 "Hg3 mi
2:00 PM108 °FHaze.5 mph12%29.68 "Hg3 mi
1:00 PM106 °FHaze.5 mph14%29.71 "Hg3 mi
10:00 AM97 °FHaze.3 mph25%29.74 "Hg2 mi
8:00 AM82 °FHaze.2 mph51%29.74 "Hg1 mi
7:00 AM79 °FHaze.3 mph45%29.74 "Hg1 mi
6:00 AM73 °FHaze.1 mph61%29.74 "Hg1 mi
5:00 AM77 °FHaze.No wind54%29.71 "Hg2 mi
4:00 AM79 °FHaze.2 mph54%29.71 "Hg2 mi
12:00 AM88 °FHaze.2 mph31%29.74 "Hg2 mi
Weather by CustomWeather, © 2015

See weather overviewHow to use our weather pages